Theta_e
341 344 347 343 341 342 342 342 343 342 343 344 341 337 339 340 339 341 342 343 341 342 341 340 339 337 335 333 332 334 336 336
343 343 344 349 349 340 340 341 340 339 339 337 336 335 334 335 337 338 339 342 341 341 339 338 337 335 333 331 331 332 335 334
343 340 343 346 345 344 340 340 338 337 338 335 334 336 335 335 335 336 337 338 338 338 337 335 333 332 332 330 329 332 332 332
338 337 339 340 338 341 344 342 341 335 335 334 335 335 335 333 332 334 335 336 336 336 335 332 333 333 331 327 330 330 330 330
336 335 335 336 337 338 337 337 337 333 332 331 334 334 333 331 333 335 334 335 336 336 334 334 334 333 330 330 329 329 328 328
333 334 334 335 336 333 334 334 334 331 330 331 333 333 332 333 334 334 332 331 332 336 334 333 332 330 329 328 328 327 327 326
331 332 333 333 333 332 333 333 332 332 331 329 333 332 332 333 333 334 330 328 329 333 331 330 329 328 328 327 326 326 325 325
330 330 332 333 332 331 331 332 332 331 330 331 330 330 333 333 333 333 331 326 328 331 330 328 327 327 326 326 325 325 325 325
328 330 333 331 329 331 330 328 328 328 329 331 329 330 330 331 331 331 331 325 323 328 328 327 326 326 325 325 325 324 323 324
329 331 331 330 329 328 327 326 325 325 327 328 328 329 331 331 330 329 329 324 322 324 325 324 324 323 323 323 323 323 324 325
328 329 329 327 327 327 328 327 327 325 325 326 326 327 329 329 329 329 328 322 322 323 323 323 321 322 321 322 323 322 324 324
327 327 329 326 325 325 325 326 327 327 325 326 327 328 327 329 327 324 325 322 321 321 321 323 322 322 319 320 321 323 324 323
324 325 324 322 321 321 322 321 324 326 327 328 327 326 327 325 325 322 323 321 320 321 321 321 320 323 319 317 319 321 321 322
322 323 323 322 323 322 322 323 324 325 328 327 327 325 326 326 321 322 321 320 322 320 320 320 320 321 318 317 311 314 318 320
322 322 323 322 324 325 322 322 323 322 323 322 321 324 325 323 321 320 319 321 319 319 320 321 317 320 322 318 311 311 315 319
322 322 322 322 326 324 320 318 318 321 323 323 321 321 320 320 319 318 317 320 319 318 318 320 321 317 319 318 322 320 314 312
321 320 321 322 325 324 321 319 320 322 322 322 322 320 321 319 318 315 316 318 319 318 317 318 321 320 318 317 317 318 320 316
319 318 319 320 322 322 320 321 319 318 320 320 320 321 320 320 318 317 316 317 317 319 318 318 318 320 318 318 316 315 313 314
317 318 317 318 319 319 319 322 320 319 319 320 319 319 319 318 319 317 317 317 319 320 320 319 319 320 321 318 319 318 317 316
320 321 319 317 318 318 318 321 321 320 321 321 321 321 322 321 320 319 318 318 318 318 318 319 321 320 320 322 319 318 318 316
Wind_Speed
9 10 14 11 12 11 11 12 13 11 11 13 9 14 14 9 8 9 13 14 18 21 20 21 19 18 19 17 14 11 13 10
9 10 10 12 11 12 10 9 8 11 9 15 16 17 18 19 15 12 11 17 18 20 21 20 18 18 18 16 14 11 12 11
9 9 9 9 7 8 10 9 16 16 17 18 15 10 13 14 11 7 13 18 19 21 20 18 16 16 17 15 14 7 9 7
10 9 8 7 4 6 7 9 11 9 10 14 11 12 12 12 14 13 13 16 19 20 20 19 17 11 9 12 6 9 7 8
9 8 7 7 5 3 2 4 7 8 12 10 11 8 7 6 5 7 9 15 9 14 14 12 13 11 10 8 9 9 7 7
10 10 9 8 5 4 5 7 7 7 9 12 9 7 9 9 7 8 7 7 11 13 10 11 13 12 12 10 10 8 7 6
12 11 10 8 7 5 5 7 7 8 10 10 9 10 8 9 8 7 7 7 8 12 11 11 11 11 11 11 11 10 10 7
14 13 11 10 8 8 4 5 6 7 8 9 10 7 8 10 8 9 9 9 8 12 12 11 11 11 11 11 11 10 11 10
15 14 13 11 9 8 6 5 6 6 7 10 11 9 9 11 9 8 10 9 10 12 12 11 10 9 11 10 10 10 10 10
15 12 12 11 9 7 5 6 5 4 5 5 11 12 12 9 10 9 10 10 10 11 12 11 10 10 9 8 9 9 11 12
15 13 13 12 9 7 7 7 6 6 5 4 8 11 12 9 9 10 13 10 10 11 11 11 11 10 9 9 8 9 10 9
15 11 13 12 7 6 4 5 5 6 7 9 13 10 13 10 10 11 11 10 10 11 14 11 11 10 9 7 6 6 7 8
18 14 13 9 7 6 4 6 6 6 6 11 13 12 13 13 9 13 12 12 13 14 13 15 10 10 8 6 5 5 7 7
17 15 15 10 8 7 4 5 3 4 6 8 12 14 12 13 11 13 14 11 15 16 15 11 10 12 8 9 5 3 5 7
18 16 15 12 11 8 4 3 2 2 3 3 1 8 13 11 15 11 13 12 12 15 15 15 11 11 11 6 5 5 7 6
17 16 16 12 15 11 11 6 5 3 2 5 4 6 9 11 13 13 11 10 12 12 11 12 11 12 8 3 5 7 6 5
15 16 15 14 14 12 8 7 4 4 3 7 8 6 7 10 10 12 11 8 11 13 12 11 10 10 9 7 5 4 4 3
13 16 14 13 14 11 11 11 9 6 4 4 3 5 6 9 10 9 9 9 10 11 12 13 10 9 7 8 5 5 4 4
15 17 16 14 12 11 11 11 10 9 8 5 5 3 4 7 8 11 10 10 10 9 10 11 11 11 13 9 7 6 3 3
19 19 17 14 13 12 9 10 7 7 7 6 6 6 6 8 10 9 11 12 10 10 8 7 8 8 11 11 7 7 4 4
Wind_Direction
163 176 180 177 180 181 185 184 180 185 179 181 148 87 109 152 167 180 177 155 145 139 137 135 136 132 126 121 118 130 133 131
171 174 182 188 191 181 198 185 181 152 145 120 130 140 145 151 164 204 193 148 149 145 140 137 135 131 125 123 120 130 136 136
180 183 178 187 188 183 178 170 144 136 137 143 143 155 161 159 161 185 199 161 159 153 138 132 131 127 127 126 143 142 142 137
182 183 178 175 176 178 186 178 163 147 151 156 157 163 168 168 171 170 202 164 162 146 136 132 146 149 134 131 148 142 142 141
177 161 175 182 186 164 170 168 161 150 159 166 169 168 173 169 188 174 173 154 150 144 139 154 157 158 154 157 146 151 140 143
170 165 173 184 180 179 168 161 161 161 170 167 171 177 183 180 188 158 168 145 155 159 158 155 157 154 154 145 151 156 152 150
183 168 177 181 179 184 164 164 163 168 170 180 179 183 188 184 178 151 144 135 151 162 157 160 153 153 154 157 153 159 154 162
188 179 177 178 188 185 162 159 164 172 176 182 185 187 191 186 167 165 153 151 166 165 164 162 164 161 159 158 163 161 165 166
186 177 178 177 183 185 173 150 151 166 178 187 187 182 186 183 169 165 158 150 155 161 161 160 160 163 164 163 163 165 168 171
184 175 178 174 186 188 179 162 149 154 169 176 183 186 188 182 167 165 156 152 154 163 164 164 162 162 162 168 164 171 177 182
183 173 175 176 172 173 183 175 177 178 189 186 185 194 193 195 170 165 157 154 159 163 165 166 160 166 164 172 165 176 182 186
178 169 173 165 162 159 170 179 189 188 193 210 212 203 199 192 167 161 156 153 164 164 160 167 166 166 160 160 177 174 185 191
174 166 163 153 152 161 177 188 198 206 206 208 210 213 207 209 170 160 161 162 169 163 156 155 158 164 143 140 160 171 192 190
169 166 163 159 162 168 164 176 187 212 218 230 216 203 203 190 156 166 163 157 165 165 158 153 149 169 169 160 165 177 207 211
171 165 164 163 165 165 126 129 131 192 176 137 82 193 183 156 152 160 157 160 163 169 165 167 156 179 179 162 157 197 172 188
165 163 166 168 171 164 157 171 180 182 157 152 144 122 131 146 147 148 153 159 164 173 169 170 160 172 184 174 188 140 186 184
165 162 163 166 176 168 164 176 179 141 132 137 148 132 132 142 141 135 151 156 161 169 167 170 179 174 187 170 166 150 155 152
161 161 162 161 174 171 182 193 166 151 149 131 129 158 150 152 146 146 148 152 166 173 170 173 174 178 185 189 166 172 176 166
169 162 161 157 163 169 181 189 176 167 165 165 148 155 150 158 160 160 161 161 169 174 176 178 174 185 194 197 195 182 154 191
170 166 164 155 165 171 174 186 183 172 173 173 190 200 179 173 178 174 163 160 166 166 169 180 179 186 193 205 205 195 188 158